Location: Unspecified
(0.0000°N, 0.0000°E)
Time: 03:20:43
(UTC+00:00)

STARLINK-1273 - Pass Details

Date: 18 February 2026
Orbit: 434 x 436 km, 53.1° (Epoch: 6 March)

Event Time Altitude Azimuth Distance (km) Brightness Sun altitude
Rises 18:45:50 0° 311° (NW) 2,416 7.5 -7.8°
Reaches altitude 10° 18:48:04 10° 301° (WNW) 1,548 6.7 -8.4°
Maximum altitude 18:51:13 32° 236° (SW) 777 5.2 -9.1°
Drops below altitude 10° 18:54:22 10° 171° (S) 1,548 6.0 -9.9°
Sets 18:56:38 0° 161° (SSE) 2,417 6.8 -10.5°
